Weather in Sheliugy

Ukraine / Zaporizhia Region     46°33′23″N   35°13′44″E
temp.,
°C
wind,
m/s
gust,
m/s
humid.,
%
clouds,
%
prec.,
mm/h
press.,
hPa
HPBL,
m
2 march, tue
tue223:00+1n468255 0.0 1029165
02:00+1nnw468128 0.0 1030156
05:000nw34830 0.0 1029118
08:00+1wnw35790 0.0 1030234
11:00+5w56590 0.0 10281050
14:00+6w795810 0.0 1026895
17:00+5wsw8116688 0.0 1023738
20:00+3wsw9147577 0.0 1023589
3 march, wed
wed323:00+4wsw9148148 0.0 1021554
02:00+3nw6107774 0.1 1021524
05:00+3nw8128399 0.0 1021792
08:00+2nnw7107979 0.0 1024843
11:00+5nnw78616 0.0 1025992
14:00+7nnw68513 0.0 1025967
17:00+6nw47530 0.0 1026307
20:00+4nw34610 0.0 102777
4 march, thu
thu423:00+3w23660 0.0 102737
02:00+2w33720 0.0 102672
05:00+2wsw45740 0.0 1025128
08:00+4wsw58720 0.0 1024338
11:00+7sw79610 0.0 1022819
14:00+8sw710580 0.0 1020867
17:00+7sw510660 0.0 1018469
20:00+5sw813735 0.0 1018436
5 march, fri
fri523:00+4sw8158065 0.0 1016479
02:00+4sw7148332 0.0 1016484
05:00+4sw613880 0.0 1015416
08:00+5sw711851 0.0 1015439
11:00+7ssw697359 0.0 1015472
14:00+8s696672 0.0 1013481
17:00+8ssw696882 0.0 1012244
20:00+7sw6117962 0.0 1012261
6 march, sat
sat623:00+6sw510900 0.0 1012303
02:00+5wsw479630 0.0 1012195
05:00+5wnw3496100 0.0 101283
08:00+5n4790100 0.0 1014303
11:00+4n7991100 0.1 1015380
14:00+2n71092100 1.0 1016665
17:00+4nnw7951100 0.0 10181225
20:00+2nnw81157100 0.0 10211056